Time,TemperatureF,DewpointF,PressureIn,WindDirection,WindDirectionDegrees,WindSpeedMPH,WindSpeedGustMPH,Humidity,HourlyPrecipIn,Conditions,Clouds,dailyrainin,SoftwareType,DateUTC
2013-03-15 00:00:00,28.0,12.7,29.92,NW,310,18.4,34.5,52,0.00,RA,,0.00,WeatherDisplay:10.37,2013-03-15 04:00:00,
2013-03-15 00:01:00,28.0,12.7,29.92,NW,310,18.4,34.5,52,0.00,RA,,0.00,WeatherDisplay:10.37,2013-03-15 04:01:00,
2013-03-15 00:06:00,28.0,12.7,29.92,NW,310,18.4,34.5,52,0.00,RA,,0.00,WeatherDisplay:10.37,2013-03-15 04:06:00,
2013-03-15 00:11:00,28.0,12.7,29.92,NW,310,18.4,34.5,52,0.00,OVC,,0.00,WeatherDisplay:10.37,2013-03-15 04:11:00,
2013-03-15 00:16:00,28.0,13.5,29.92,NW,310,18.4,34.5,54,0.00,OVC,,0.00,WeatherDisplay:10.37,2013-03-15 04:16:00,
2013-03-15 00:21:00,27.9,13.3,29.92,NW,310,18.4,32.2,54,0.00,OVC,,0.00,WeatherDisplay:10.37,2013-03-15 04:21:00,
2013-03-15 00:26:00,27.9,13.3,29.92,NW,310,18.4,32.2,54,0.00,OVC,,0.00,WeatherDisplay:10.37,2013-03-15 04:26:00,
2013-03-15 00:31:00,27.9,13.3,29.92,NW,310,18.4,32.2,54,0.00,OVC,,0.00,WeatherDisplay:10.37,2013-03-15 04:31:00,
2013-03-15 00:36:00,27.9,13.3,29.92,NW,310,18.4,32.2,54,0.00,OVC,,0.00,WeatherDisplay:10.37,2013-03-15 04:36:00,
2013-03-15 00:41:00,27.9,13.3,29.92,NW,310,18.4,32.2,54,0.00,OVC,,0.00,WeatherDisplay:10.37,2013-03-15 04:41:00,
2013-03-15 00:47:00,27.7,13.2,29.92,NW,310,18.4,32.2,54,0.00,OVC,,0.00,WeatherDisplay:10.37,2013-03-15 04:47:00,
2013-03-15 00:52:00,27.7,13.2,29.92,NW,310,18.4,32.2,54,0.00,OVC,,0.00,WeatherDisplay:10.37,2013-03-15 04:52:00,
2013-03-15 00:57:00,27.5,13.0,29.92,NW,310,18.4,32.2,54,0.00,OVC,,0.00,WeatherDisplay:10.37,2013-03-15 04:57:00,
2013-03-15 01:02:00,27.5,13.0,29.92,NW,310,18.4,32.2,54,0.00,OVC,,0.00,WeatherDisplay:10.37,2013-03-15 05:02:00,
2013-03-15 01:07:00,27.5,13.0,29.92,NW,310,18.4,32.2,54,0.00,OVC,,0.00,WeatherDisplay:10.37,2013-03-15 05:07:00,
2013-03-15 01:12:00,27.3,12.8,29.92,NW,310,18.4,32.2,54,0.00,OVC,,0.00,WeatherDisplay:10.37,2013-03-15 05:12:00,
2013-03-15 01:17:00,27.1,11.8,29.92,NW,320,17.3,32.2,52,0.00,BKN,,0.00,WeatherDisplay:10.37,2013-03-15 05:17:00,
2013-03-15 01:22:00,27.1,11.8,29.92,NW,320,17.3,25.3,52,0.00,BKN,,0.00,WeatherDisplay:10.37,2013-03-15 05:22:00,
2013-03-15 01:27:00,27.0,11.7,29.92,NW,320,17.3,25.3,52,0.00,BKN,,0.00,WeatherDisplay:10.37,2013-03-15 05:27:00,
2013-03-15 01:32:00,27.0,11.7,29.92,NW,320,17.3,25.3,52,0.00,BKN,,0.00,WeatherDisplay:10.37,2013-03-15 05:32:00,
2013-03-15 01:37:00,26.6,11.3,29.92,NW,320,17.3,25.3,52,0.00,BKN,,0.00,WeatherDisplay:10.37,2013-03-15 05:37:00,
2013-03-15 01:42:00,26.6,11.3,29.92,NW,320,17.3,25.3,52,0.00,BKN,,0.00,WeatherDisplay:10.37,2013-03-15 05:42:00,
2013-03-15 01:47:00,26.4,11.2,29.95,NW,320,17.3,25.3,52,0.00,BKN,,0.00,WeatherDisplay:10.37,2013-03-15 05:47:00,
2013-03-15 01:52:00,26.2,11.0,29.95,NW,320,17.3,25.3,52,0.00,BKN,,0.00,WeatherDisplay:10.37,2013-03-15 05:52:00,
2013-03-15 01:57:00,26.1,10.8,29.95,NW,320,17.3,25.3,52,0.00,BKN,,0.00,WeatherDisplay:10.37,2013-03-15 05:57:00,
2013-03-15 02:02:00,26.1,10.8,29.95,NW,320,17.3,25.3,52,0.00,BKN,,0.00,WeatherDisplay:10.37,2013-03-15 06:02:00,
2013-03-15 02:07:00,25.9,10.6,29.95,NW,320,17.3,25.3,52,0.00,BKN,,0.00,WeatherDisplay:10.37,2013-03-15 06:07:00,
2013-03-15 02:12:00,25.9,10.6,29.95,NW,320,17.3,25.3,52,0.00,BKN,,0.00,WeatherDisplay:10.37,2013-03-15 06:12:00,
2013-03-15 02:17:00,25.7,11.3,29.95,NNW,330,11.5,11.5,54,0.00,SCT,,0.00,WeatherDisplay:10.37,2013-03-15 06:17:00,
2013-03-15 02:22:00,25.5,11.2,29.95,NNW,330,11.5,11.5,54,0.00,SCT,,0.00,WeatherDisplay:10.37,2013-03-15 06:22:00,
2013-03-15 02:27:00,25.5,11.2,29.95,NNW,330,11.5,11.5,54,0.00,SCT,,0.00,WeatherDisplay:10.37,2013-03-15 06:27:00,
2013-03-15 02:32:00,25.3,11.0,29.95,NNW,330,11.5,11.5,54,0.00,SCT,,0.00,WeatherDisplay:10.37,2013-03-15 06:32:00,
2013-03-15 02:37:00,25.3,11.0,29.95,NNW,330,11.5,11.5,54,0.00,SCT,,0.00,WeatherDisplay:10.37,2013-03-15 06:37:00,
2013-03-15 02:42:00,25.2,10.8,29.95,NNW,330,11.5,11.5,54,0.00,SCT,,0.00,WeatherDisplay:10.37,2013-03-15 06:42:00,
2013-03-15 02:47:00,25.2,10.8,29.95,NNW,330,11.5,11.5,54,0.00,SCT,,0.00,WeatherDisplay:10.37,2013-03-15 06:47:00,
2013-03-15 02:52:00,25.0,10.7,29.95,NNW,330,11.5,11.5,54,0.00,SCT,,0.00,WeatherDisplay:10.37,2013-03-15 06:52:00,
2013-03-15 02:57:00,25.0,10.7,29.95,NNW,330,11.5,11.5,54,0.00,SCT,,0.00,WeatherDisplay:10.37,2013-03-15 06:57:00,
2013-03-15 03:02:00,24.8,10.5,29.95,NNW,330,11.5,11.5,54,0.00,SCT,,0.00,WeatherDisplay:10.37,2013-03-15 07:02:00,
2013-03-15 03:07:00,24.6,10.3,29.95,NNW,330,11.5,11.5,54,0.00,SCT,,0.00,WeatherDisplay:10.37,2013-03-15 07:07:00,
2013-03-15 03:12:00,24.6,10.3,29.95,NNW,330,11.5,11.5,54,0.00,SCT,,0.00,WeatherDisplay:10.37,2013-03-15 07:12:00,
2013-03-15 03:17:00,24.4,8.0,29.95,NW,320,15.0,15.0,49,0.00,SCT,,0.00,WeatherDisplay:10.37,2013-03-15 07:17:00,
2013-03-15 03:22:00,24.4,8.0,29.95,NW,320,15.0,15.0,49,0.00,SCT,,0.00,WeatherDisplay:10.37,2013-03-15 07:22:00,
2013-03-15 03:27:00,24.3,7.8,29.95,NW,320,15.0,15.0,49,0.00,SCT,,0.00,WeatherDisplay:10.37,2013-03-15 07:27:00,
2013-03-15 03:32:00,24.3,7.8,29.95,NW,320,15.0,15.0,49,0.00,SCT,,0.00,WeatherDisplay:10.37,2013-03-15 07:32:00,
2013-03-15 03:37:00,24.1,7.7,29.95,NW,320,15.0,15.0,49,0.00,SCT,,0.00,WeatherDisplay:10.37,2013-03-15 07:37:00,
2013-03-15 03:42:00,24.1,7.7,29.95,NW,320,15.0,15.0,49,0.00,SCT,,0.00,WeatherDisplay:10.37,2013-03-15 07:42:00,
2013-03-15 03:47:00,23.9,7.5,29.95,NW,320,15.0,15.0,49,0.00,SCT,,0.00,WeatherDisplay:10.37,2013-03-15 07:47:00,
2013-03-15 03:52:00,23.9,7.5,29.95,NW,320,15.0,15.0,49,0.00,SCT,,0.00,WeatherDisplay:10.37,2013-03-15 07:52:00,
2013-03-15 03:57:00,23.7,7.3,29.95,NW,320,15.0,15.0,49,0.00,SCT,,0.00,WeatherDisplay:10.37,2013-03-15 07:57:00,
2013-03-15 04:02:00,23.7,9.5,29.95,NW,310,9.2,9.2,54,0.00,FEW,,0.00,WeatherDisplay:10.37,2013-03-15 08:02:00,
2013-03-15 04:07:00,23.7,9.5,29.95,NW,310,9.2,9.2,54,0.00,FEW,,0.00,WeatherDisplay:10.37,2013-03-15 08:07:00,
2013-03-15 04:12:00,23.5,9.3,29.95,NW,310,9.2,9.2,54,0.00,FEW,,0.00,WeatherDisplay:10.37,2013-03-15 08:12:00,
2013-03-15 04:17:00,23.4,9.1,29.95,NW,310,9.2,9.2,54,0.00,FEW,,0.00,WeatherDisplay:10.37,2013-03-15 08:17:00,
2013-03-15 04:22:00,23.4,9.1,29.95,NW,310,9.2,9.2,54,0.00,FEW,,0.00,WeatherDisplay:10.37,2013-03-15 08:22:00,
2013-03-15 04:27:00,23.4,9.1,29.95,NW,310,9.2,9.2,54,0.00,FEW,,0.00,WeatherDisplay:10.37,2013-03-15 08:27:00,
2013-03-15 04:33:00,23.4,9.1,29.95,NW,310,9.2,9.2,54,0.00,FEW,,0.00,WeatherDisplay:10.37,2013-03-15 08:33:00,
2013-03-15 04:38:00,23.2,9.0,29.95,NW,310,9.2,9.2,54,0.00,FEW,,0.00,WeatherDisplay:10.37,2013-03-15 08:38:00,
2013-03-15 04:43:00,23.2,9.0,29.95,NW,310,9.2,9.2,54,0.00,FEW,,0.00,WeatherDisplay:10.37,2013-03-15 08:43:00,
2013-03-15 04:48:00,23.0,8.8,29.95,NW,310,9.2,9.2,54,0.00,FEW,,0.00,WeatherDisplay:10.37,2013-03-15 08:48:00,
2013-03-15 04:53:00,22.8,8.6,29.95,NW,310,9.2,9.2,54,0.00,FEW,,0.00,WeatherDisplay:10.37,2013-03-15 08:53:00,
2013-03-15 04:58:00,22.8,8.6,29.95,NW,310,9.2,9.2,54,0.00,FEW,,0.00,WeatherDisplay:10.37,2013-03-15 08:58:00,
2013-03-15 05:03:00,22.8,8.6,29.92,NW,310,9.2,9.2,54,0.00,FEW,,0.00,WeatherDisplay:10.37,2013-03-15 09:03:00,
2013-03-15 05:08:00,22.6,8.5,29.92,NW,310,9.2,9.2,54,0.00,FEW,,0.00,WeatherDisplay:10.37,2013-03-15 09:08:00,
2013-03-15 05:13:00,22.6,8.5,29.92,NW,310,9.2,9.2,54,0.00,FEW,,0.00,WeatherDisplay:10.37,2013-03-15 09:13:00,
2013-03-15 05:18:00,22.6,9.3,29.92,WNW,300,4.6,4.6,56,0.00,FEW,,0.00,WeatherDisplay:10.37,2013-03-15 09:18:00,
2013-03-15 05:23:00,22.5,9.1,29.92,WNW,300,4.6,4.6,56,0.00,FEW,,0.00,WeatherDisplay:10.37,2013-03-15 09:23:00,
2013-03-15 05:28:00,22.5,9.1,29.92,WNW,300,4.6,4.6,56,0.00,FEW,,0.00,WeatherDisplay:10.37,2013-03-15 09:28:00,
2013-03-15 05:33:00,22.5,9.1,29.92,WNW,300,4.6,4.6,56,0.00,FEW,,0.00,WeatherDisplay:10.37,2013-03-15 09:33:00,
2013-03-15 05:38:00,22.5,9.1,29.92,WNW,300,4.6,4.6,56,0.00,FEW,,0.00,WeatherDisplay:10.37,2013-03-15 09:38:00,
2013-03-15 05:43:00,22.1,8.8,29.92,WNW,300,4.6,4.6,56,0.00,FEW,,0.00,WeatherDisplay:10.37,2013-03-15 09:43:00,
2013-03-15 05:48:00,21.9,8.6,29.92,WNW,300,4.6,4.6,56,0.00,FEW,,0.00,WeatherDisplay:10.37,2013-03-15 09:48:00,
2013-03-15 05:53:00,21.9,8.6,29.92,WNW,300,4.6,4.6,56,0.00,FEW,,0.00,WeatherDisplay:10.37,2013-03-15 09:53:00,
2013-03-15 05:58:00,21.7,8.4,29.95,WNW,300,4.6,4.6,56,0.00,FEW,,0.00,WeatherDisplay:10.37,2013-03-15 09:58:00,
2013-03-15 06:03:00,21.6,8.3,29.95,WNW,300,4.6,4.6,56,0.00,FEW,,0.00,WeatherDisplay:10.37,2013-03-15 10:03:00,
2013-03-15 06:08:00,21.4,8.1,29.95,WNW,300,4.6,4.6,56,0.00,FEW,,0.00,WeatherDisplay:10.37,2013-03-15 10:08:00,
2013-03-15 06:13:00,21.4,8.1,29.92,WNW,300,4.6,4.6,56,0.00,FEW,,0.00,WeatherDisplay:10.37,2013-03-15 10:13:00,
2013-03-15 06:18:00,21.4,10.0,29.92,WNW,290,4.6,4.6,61,0.00,FEW,,0.00,WeatherDisplay:10.37,2013-03-15 10:18:00,
2013-03-15 06:23:00,21.2,9.8,29.92,WNW,290,4.6,4.6,61,0.00,FEW,,0.00,WeatherDisplay:10.37,2013-03-15 10:23:00,
2013-03-15 06:28:00,21.2,9.8,29.92,WNW,290,4.6,4.6,61,0.00,FEW,,0.00,WeatherDisplay:10.37,2013-03-15 10:28:00,
2013-03-15 06:33:00,21.0,9.7,29.92,WNW,290,4.6,4.6,61,0.00,FEW,,0.00,WeatherDisplay:10.37,2013-03-15 10:33:00,
2013-03-15 06:38:00,21.0,9.7,29.92,WNW,290,4.6,4.6,61,0.00,FEW,,0.00,WeatherDisplay:10.37,2013-03-15 10:38:00,
2013-03-15 06:43:00,20.8,9.5,29.92,WNW,290,4.6,4.6,61,0.00,FEW,,0.00,WeatherDisplay:10.37,2013-03-15 10:43:00,
2013-03-15 06:48:00,20.8,9.5,29.92,WNW,290,4.6,4.6,61,0.00,FEW,,0.00,WeatherDisplay:10.37,2013-03-15 10:48:00,
2013-03-15 06:53:00,20.7,9.3,29.92,WNW,290,4.6,4.6,61,0.00,FEW,,0.00,WeatherDisplay:10.37,2013-03-15 10:53:00,
2013-03-15 06:58:00,20.7,9.3,29.92,WNW,290,4.6,4.6,61,0.00,FEW,,0.00,WeatherDisplay:10.37,2013-03-15 10:58:00,
2013-03-15 07:03:00,20.7,9.3,29.92,WNW,290,3.5,3.5,61,0.00,BKN,,0.00,WeatherDisplay:10.37,2013-03-15 11:03:00,
2013-03-15 07:08:00,20.7,9.3,29.92,WNW,290,3.5,3.5,61,0.00,BKN,,0.00,WeatherDisplay:10.37,2013-03-15 11:08:00,
2013-03-15 07:13:00,20.7,9.3,29.92,WNW,290,3.5,3.5,61,0.00,BKN,,0.00,WeatherDisplay:10.37,2013-03-15 11:13:00,
2013-03-15 07:18:00,20.7,9.3,29.92,WNW,290,3.5,3.5,61,0.00,BKN,,0.00,WeatherDisplay:10.37,2013-03-15 11:18:00,
2013-03-15 07:23:00,20.8,9.5,29.92,WNW,290,3.5,3.5,61,0.00,BKN,,0.00,WeatherDisplay:10.37,2013-03-15 11:23:00,
2013-03-15 07:28:00,20.8,9.5,29.92,WNW,290,3.5,3.5,61,0.00,BKN,,0.00,WeatherDisplay:10.37,2013-03-15 11:28:00,
2013-03-15 07:33:00,20.8,9.5,29.92,WNW,290,3.5,3.5,61,0.00,BKN,,0.00,WeatherDisplay:10.37,2013-03-15 11:33:00,
2013-03-15 07:38:00,21.0,9.7,29.92,WNW,290,3.5,3.5,61,0.00,BKN,,0.00,WeatherDisplay:10.37,2013-03-15 11:38:00,
2013-03-15 07:43:00,21.0,9.7,29.92,WNW,290,3.5,3.5,61,0.00,BKN,,0.00,WeatherDisplay:10.37,2013-03-15 11:43:00,
2013-03-15 07:48:00,21.2,9.8,29.92,WNW,290,3.5,3.5,61,0.00,BKN,,0.00,WeatherDisplay:10.37,2013-03-15 11:48:00,
2013-03-15 07:53:00,21.4,10.0,29.92,WNW,290,3.5,3.5,61,0.00,BKN,,0.00,WeatherDisplay:10.37,2013-03-15 11:53:00,
2013-03-15 07:58:00,21.7,10.3,29.92,WNW,290,3.5,3.5,61,0.00,BKN,,0.00,WeatherDisplay:10.37,2013-03-15 11:58:00,
2013-03-15 08:03:00,21.9,10.5,29.92,WNW,290,0.0,0.0,61,0.00,SCT,,0.00,WeatherDisplay:10.37,2013-03-15 12:03:00,
2013-03-15 08:08:00,22.3,10.9,29.92,WNW,290,0.0,0.0,61,0.00,SCT,,0.00,WeatherDisplay:10.37,2013-03-15 12:08:00,
2013-03-15 08:13:00,22.5,11.0,29.89,WNW,290,0.0,0.0,61,0.00,SCT,,0.00,WeatherDisplay:10.37,2013-03-15 12:13:00,
2013-03-15 08:18:00,22.8,11.4,29.89,WNW,290,0.0,0.0,61,0.00,SCT,,0.00,WeatherDisplay:10.37,2013-03-15 12:18:00,
2013-03-15 08:23:00,23.2,11.7,29.89,WNW,290,0.0,0.0,61,0.00,SCT,,0.00,WeatherDisplay:10.37,2013-03-15 12:23:00,
2013-03-15 08:28:00,24.1,12.6,29.89,WNW,290,0.0,0.0,61,0.00,SCT,,0.00,WeatherDisplay:10.37,2013-03-15 12:28:00,
2013-03-15 08:33:00,25.0,13.4,29.89,WNW,290,0.0,0.0,61,0.00,SCT,,0.00,WeatherDisplay:10.37,2013-03-15 12:33:00,
2013-03-15 08:38:00,25.7,14.1,29.89,WNW,290,0.0,0.0,61,0.00,SCT,,0.00,WeatherDisplay:10.37,2013-03-15 12:38:00,
2013-03-15 08:43:00,26.6,14.9,29.89,WNW,290,0.0,0.0,61,0.00,SCT,,0.00,WeatherDisplay:10.37,2013-03-15 12:43:00,
2013-03-15 08:48:00,27.3,15.6,29.89,WNW,290,0.0,0.0,61,0.00,SCT,,0.00,WeatherDisplay:10.37,2013-03-15 12:48:00,
2013-03-15 08:53:00,27.9,16.1,29.89,WNW,290,0.0,0.0,61,0.00,SCT,,0.00,WeatherDisplay:10.37,2013-03-15 12:53:00,
2013-03-15 08:58:00,29.5,17.7,29.89,WNW,290,0.0,0.0,61,0.00,SCT,,0.00,WeatherDisplay:10.37,2013-03-15 12:58:00,
2013-03-15 09:03:00,31.1,15.5,29.89,WNW,290,0.0,0.0,52,0.00,SCT,,0.00,WeatherDisplay:10.37,2013-03-15 13:03:00,
2013-03-15 09:08:00,32.4,16.7,29.89,WNW,290,0.0,0.0,52,0.00,SCT,,0.00,WeatherDisplay:10.37,2013-03-15 13:08:00,
2013-03-15 09:13:00,33.4,17.7,29.89,WNW,290,0.0,0.0,52,0.00,SCT,,0.00,WeatherDisplay:10.37,2013-03-15 13:13:00,
2013-03-15 09:18:00,34.5,18.7,29.89,WNW,290,0.0,0.0,52,0.00,SCT,,0.00,WeatherDisplay:10.37,2013-03-15 13:18:00,
2013-03-15 09:23:00,34.2,18.3,29.89,WNW,290,0.0,0.0,52,0.00,SCT,,0.00,WeatherDisplay:10.37,2013-03-15 13:23:00,
2013-03-15 09:28:00,35.2,19.4,29.89,WNW,290,0.0,0.0,52,0.00,SCT,,0.00,WeatherDisplay:10.37,2013-03-15 13:28:00,
2013-03-15 09:33:00,35.8,19.9,29.89,WNW,290,0.0,0.0,52,0.00,SCT,,0.00,WeatherDisplay:10.37,2013-03-15 13:33:00,
2013-03-15 09:38:00,35.8,19.9,29.89,WNW,290,0.0,0.0,52,0.00,SCT,,0.00,WeatherDisplay:10.37,2013-03-15 13:38:00,
2013-03-15 09:43:00,36.1,20.2,29.89,WNW,290,0.0,0.0,52,0.00,SCT,,0.00,WeatherDisplay:10.37,2013-03-15 13:43:00,
2013-03-15 09:48:00,36.7,20.7,29.89,WNW,290,0.0,0.0,52,0.00,SCT,,0.00,WeatherDisplay:10.37,2013-03-15 13:48:00,
2013-03-15 09:53:00,35.4,19.5,29.89,WNW,290,0.0,0.0,52,0.00,SCT,,0.00,WeatherDisplay:10.37,2013-03-15 13:53:00,
2013-03-15 09:58:00,35.4,19.5,29.86,WNW,290,0.0,0.0,52,0.00,SCT,,0.00,WeatherDisplay:10.37,2013-03-15 13:58:00,
2013-03-15 10:03:00,37.4,21.4,29.86,WNW,290,0.0,0.0,52,0.00,SCT,,0.00,WeatherDisplay:10.37,2013-03-15 14:03:00,
2013-03-15 10:08:00,38.8,22.7,29.86,WNW,290,0.0,0.0,52,0.00,SCT,,0.00,WeatherDisplay:10.37,2013-03-15 14:08:00,
2013-03-15 10:13:00,39.4,23.2,29.86,WNW,290,0.0,0.0,52,0.00,SCT,,0.00,WeatherDisplay:10.37,2013-03-15 14:13:00,
2013-03-15 10:18:00,40.1,22.9,29.86,South,190,3.5,3.5,50,0.00,BKN,,0.00,WeatherDisplay:10.37,2013-03-15 14:18:00,
2013-03-15 10:23:00,39.7,22.6,29.86,South,190,3.5,3.5,50,0.00,BKN,,0.00,WeatherDisplay:10.37,2013-03-15 14:23:00,
2013-03-15 10:28:00,39.6,22.4,29.86,South,190,3.5,3.5,50,0.00,BKN,,0.00,WeatherDisplay:10.37,2013-03-15 14:28:00,
2013-03-15 10:34:00,39.2,22.1,29.86,South,190,3.5,3.5,50,0.00,BKN,,0.00,WeatherDisplay:10.37,2013-03-15 14:34:00,
2013-03-15 10:39:00,39.2,22.1,29.86,South,190,3.5,3.5,50,0.00,BKN,,0.00,WeatherDisplay:10.37,2013-03-15 14:39:00,
2013-03-15 10:44:00,39.4,22.3,29.83,South,190,3.5,3.5,50,0.00,BKN,,0.00,WeatherDisplay:10.37,2013-03-15 14:44:00,
2013-03-15 10:49:00,38.8,21.8,29.83,South,190,3.5,3.5,50,0.00,BKN,,0.00,WeatherDisplay:10.37,2013-03-15 14:49:00,
2013-03-15 10:54:00,38.8,21.8,29.83,South,190,3.5,3.5,50,0.00,BKN,,0.00,WeatherDisplay:10.37,2013-03-15 14:54:00,
2013-03-15 10:59:00,38.8,21.8,29.83,South,190,3.5,3.5,50,0.00,BKN,,0.00,WeatherDisplay:10.37,2013-03-15 14:59:00,
2013-03-15 11:04:00,39.2,22.1,29.83,South,190,3.5,3.5,50,0.00,BKN,,0.00,WeatherDisplay:10.37,2013-03-15 15:04:00,
2013-03-15 11:09:00,38.1,21.1,29.83,South,190,3.5,3.5,50,0.00,BKN,,0.00,WeatherDisplay:10.37,2013-03-15 15:09:00,
2013-03-15 11:14:00,38.7,21.6,29.83,South,190,3.5,3.5,50,0.00,BKN,,0.00,WeatherDisplay:10.37,2013-03-15 15:14:00,
2013-03-15 11:19:00,38.5,19.5,29.83,SSE,160,5.8,5.8,46,0.00,BKN,,0.00,WeatherDisplay:10.37,2013-03-15 15:19:00,
2013-03-15 11:24:00,38.7,19.6,29.83,SSE,160,5.8,5.8,46,0.00,BKN,,0.00,WeatherDisplay:10.37,2013-03-15 15:24:00,
2013-03-15 11:29:00,38.7,19.6,29.81,SSE,160,5.8,5.8,46,0.00,BKN,,0.00,WeatherDisplay:10.37,2013-03-15 15:29:00,
2013-03-15 11:34:00,38.7,19.6,29.81,SSE,160,5.8,5.8,46,0.00,BKN,,0.00,WeatherDisplay:10.37,2013-03-15 15:34:00,
2013-03-15 11:39:00,38.7,19.6,29.81,SSE,160,5.8,5.8,46,0.00,BKN,,0.00,WeatherDisplay:10.37,2013-03-15 15:39:00,
2013-03-15 11:44:00,38.5,19.5,29.81,SSE,160,5.8,5.8,46,0.00,BKN,,0.00,WeatherDisplay:10.37,2013-03-15 15:44:00,
2013-03-15 11:49:00,38.5,19.5,29.81,SSE,160,5.8,5.8,46,0.00,BKN,,0.00,WeatherDisplay:10.37,2013-03-15 15:49:00,
2013-03-15 11:54:00,38.5,19.5,29.81,SSE,160,6.0,6.0,46,0.00,BKN,BKN,0.00,WeatherDisplay:10.37,2013-03-15 15:54:00,
2013-03-15 11:59:00,38.1,19.1,29.77,SSE,160,6.0,6.0,46,0.00,BKN,BKN,0.00,WeatherDisplay:10.37,2013-03-15 15:59:00,
2013-03-15 12:04:00,38.1,18.1,29.77,SSE,160,7.0,7.0,44,0.00,OVC,OVC,0.00,WeatherDisplay:10.37,2013-03-15 16:04:00,
2013-03-15 12:09:00,38.2,18.2,29.77,SSE,160,7.0,7.0,44,0.00,OVC,OVC,0.00,WeatherDisplay:10.37,2013-03-15 16:09:00,
2013-03-15 12:14:00,38.5,18.4,29.77,SSE,160,7.0,7.0,44,0.00,OVC,OVC,0.00,WeatherDisplay:10.37,2013-03-15 16:14:00,
2013-03-15 12:19:00,38.1,18.1,29.77,SSE,160,7.0,7.0,44,0.00,OVC,OVC,0.00,WeatherDisplay:10.37,2013-03-15 16:19:00,
2013-03-15 12:24:00,38.6,18.5,29.77,SSE,160,7.0,7.0,44,0.00,OVC,OVC,0.00,WeatherDisplay:10.37,2013-03-15 16:24:00,
2013-03-15 12:29:00,39.1,19.0,29.77,SSE,160,7.0,7.0,44,0.00,OVC,OVC,0.00,WeatherDisplay:10.37,2013-03-15 16:29:00,
2013-03-15 12:34:00,38.8,18.8,29.77,SSE,160,7.0,7.0,44,0.00,OVC,OVC,0.00,WeatherDisplay:10.37,2013-03-15 16:34:00,
2013-03-15 12:39:00,39.0,18.9,29.77,SSE,160,7.0,7.0,44,0.00,OVC,OVC,0.00,WeatherDisplay:10.37,2013-03-15 16:39:00,
2013-03-15 12:44:00,38.9,18.8,29.75,SSE,160,7.0,7.0,44,0.00,OVC,OVC,0.00,WeatherDisplay:10.37,2013-03-15 16:44:00,
2013-03-15 12:49:00,38.9,18.8,29.75,SSE,160,7.0,7.0,44,0.00,OVC,OVC,0.00,WeatherDisplay:10.37,2013-03-15 16:49:00,
2013-03-15 12:54:00,39.2,19.1,29.75,SSE,160,7.0,7.0,44,0.00,OVC,OVC,0.00,WeatherDisplay:10.37,2013-03-15 16:54:00,
2013-03-15 12:59:00,39.2,19.1,29.75,SSE,160,7.0,7.0,44,0.00,OVC,OVC,0.00,WeatherDisplay:10.37,2013-03-15 16:59:00,
2013-03-15 13:04:00,39.2,17.4,29.75,South,177,10.0,10.0,41,0.00,-SN,-SN,0.00,WeatherDisplay:10.37,2013-03-15 17:04:00,
2013-03-15 13:09:00,39.2,17.4,29.75,South,190,10.0,10.0,41,0.00,-SN,-SN,0.00,WeatherDisplay:10.37,2013-03-15 17:09:00,
2013-03-15 13:14:00,39.2,17.4,29.75,South,190,10.0,10.0,41,0.00,-SN,-SN,0.00,WeatherDisplay:10.37,2013-03-15 17:14:00,
2013-03-15 13:19:00,38.8,17.1,29.75,South,190,10.0,10.0,41,0.00,-SN,-SN,0.00,WeatherDisplay:10.37,2013-03-15 17:19:00,
2013-03-15 13:24:00,38.9,17.1,29.75,South,190,10.0,10.0,41,0.00,-SN,-SN,0.00,WeatherDisplay:10.37,2013-03-15 17:24:00,
2013-03-15 13:29:00,39.0,17.2,29.72,South,190,10.0,10.0,41,0.00,-SN,-SN,0.00,WeatherDisplay:10.37,2013-03-15 17:29:00,
2013-03-15 13:34:00,38.8,17.0,29.72,South,190,10.0,10.0,41,0.00,-SN,-SN,0.00,WeatherDisplay:10.37,2013-03-15 17:34:00,
2013-03-15 13:39:00,38.7,17.0,29.72,South,190,10.0,10.0,41,0.00,-SN,-SN,0.00,WeatherDisplay:10.37,2013-03-15 17:39:00,
2013-03-15 13:44:00,38.7,17.0,29.72,South,190,10.0,10.0,41,0.00,-SN,-SN,0.00,WeatherDisplay:10.37,2013-03-15 17:44:00,
2013-03-15 13:49:00,38.8,17.1,29.72,South,190,10.0,10.0,41,0.00,-SN,-SN,0.00,WeatherDisplay:10.37,2013-03-15 17:49:00,
2013-03-15 13:54:00,38.5,16.8,29.72,South,190,10.0,10.0,41,0.00,-SN,-SN,0.00,WeatherDisplay:10.37,2013-03-15 17:54:00,
2013-03-15 13:59:00,38.0,16.3,29.72,South,190,10.0,10.0,41,0.00,-SN,-SN,0.00,WeatherDisplay:10.37,2013-03-15 17:59:00,
2013-03-15 14:04:00,37.8,21.2,29.72,South,182,7.0,20.0,51,0.00,-SN,-SN,0.00,WeatherDisplay:10.37,2013-03-15 18:04:00,
2013-03-15 14:09:00,37.7,21.2,29.72,South,170,7.0,20.0,51,0.00,-SN,-SN,0.00,WeatherDisplay:10.37,2013-03-15 18:09:00,
2013-03-15 14:14:00,37.6,21.1,29.72,South,170,7.0,20.0,51,0.00,-SN,-SN,0.00,WeatherDisplay:10.37,2013-03-15 18:14:00,
2013-03-15 14:19:00,37.6,21.1,29.72,South,170,7.0,20.0,51,0.00,-SN,-SN,0.00,WeatherDisplay:10.37,2013-03-15 18:19:00,
2013-03-15 14:24:00,37.9,21.4,29.72,South,170,7.0,20.0,51,0.00,-SN,-SN,0.00,WeatherDisplay:10.37,2013-03-15 18:24:00,
2013-03-15 14:29:00,38.1,21.6,29.69,South,170,7.0,20.0,51,0.00,-SN,-SN,0.00,WeatherDisplay:10.37,2013-03-15 18:29:00,
2013-03-15 14:34:00,38.7,22.1,29.69,South,170,7.0,20.0,51,0.00,-SN,-SN,0.00,WeatherDisplay:10.37,2013-03-15 18:34:00,
2013-03-15 14:39:00,38.8,22.2,29.69,South,170,6.9,19.6,51,0.00,-SN,,0.00,WeatherDisplay:10.37,2013-03-15 18:39:00,
2013-03-15 14:44:00,38.8,22.2,29.69,South,170,6.9,19.6,51,0.00,-SN,,0.00,WeatherDisplay:10.37,2013-03-15 18:44:00,
2013-03-15 14:49:00,38.7,22.1,29.69,South,170,6.9,19.6,51,0.00,-SN,,0.00,WeatherDisplay:10.37,2013-03-15 18:49:00,
2013-03-15 14:54:00,38.7,22.1,29.69,South,170,6.9,19.6,51,0.00,-SN,,0.00,WeatherDisplay:10.37,2013-03-15 18:54:00,
2013-03-15 14:59:00,38.7,22.1,29.69,South,170,6.9,19.6,51,0.00,-SN,,0.00,WeatherDisplay:10.37,2013-03-15 18:59:00,
2013-03-15 15:04:00,38.5,21.9,29.69,South,170,7.0,20.0,51,0.00,-SN,-SN,0.00,WeatherDisplay:10.37,2013-03-15 19:04:00,
2013-03-15 15:09:00,38.3,21.7,29.69,South,170,6.9,19.6,51,0.00,-SN,,0.00,WeatherDisplay:10.37,2013-03-15 19:09:00,
2013-03-15 15:14:00,38.1,21.6,29.69,South,170,6.9,19.6,51,0.00,-SN,,0.00,WeatherDisplay:10.37,2013-03-15 19:14:00,
2013-03-15 15:19:00,38.1,26.6,29.69,SSW,210,4.6,4.6,63,0.00,-SN,,0.00,WeatherDisplay:10.37,2013-03-15 19:19:00,
2013-03-15 15:24:00,37.9,26.5,29.69,SSW,210,5.0,5.0,63,0.00,-SN,-SN,0.00,WeatherDisplay:10.37,2013-03-15 19:24:00,
2013-03-15 15:29:00,37.8,26.3,29.69,SSW,210,4.6,4.6,63,0.00,-SN,,0.00,WeatherDisplay:10.37,2013-03-15 19:29:00,
2013-03-15 15:34:00,37.8,26.3,29.69,SSW,210,5.0,5.0,63,0.00,-SN,-SN,0.00,WeatherDisplay:10.37,2013-03-15 19:34:00,
2013-03-15 15:39:00,37.9,26.5,29.69,SSW,210,5.0,5.0,63,0.00,-SN,-SN,0.00,WeatherDisplay:10.37,2013-03-15 19:39:00,
2013-03-15 15:44:00,38.1,26.6,29.69,SSW,210,5.0,5.0,63,0.00,-SN,-SN,0.00,WeatherDisplay:10.37,2013-03-15 19:44:00,
2013-03-15 15:49:00,38.1,28.8,29.69,SSW,198,8.0,8.0,69,0.00,-SN,-SN,0.00,WeatherDisplay:10.37,2013-03-15 19:49:00,
2013-03-15 15:54:00,38.3,29.0,29.69,South,190,8.0,8.0,69,0.00,-SN,-SN,0.00,WeatherDisplay:10.37,2013-03-15 19:54:00,
2013-03-15 15:59:00,38.3,29.0,29.66,South,190,8.0,8.0,69,0.00,-SN,-SN,0.00,WeatherDisplay:10.37,2013-03-15 19:59:00,
2013-03-15 16:04:00,38.5,29.2,29.66,South,190,9.0,9.0,69,0.00,-SN,-SN,0.00,WeatherDisplay:10.37,2013-03-15 20:04:00,
2013-03-15 16:09:00,38.7,29.4,29.66,South,190,9.0,9.0,69,0.00,-SN,-SN,0.00,WeatherDisplay:10.37,2013-03-15 20:09:00,
2013-03-15 16:14:00,38.7,29.4,29.66,South,190,9.0,9.0,69,0.00,-SN,-SN,0.00,WeatherDisplay:10.37,2013-03-15 20:14:00,
2013-03-15 16:19:00,38.8,29.5,29.66,South,190,9.0,9.0,69,0.00,-SN,-SN,0.00,WeatherDisplay:10.37,2013-03-15 20:19:00,
2013-03-15 16:24:00,38.8,29.5,29.66,South,190,9.0,9.0,69,0.00,-SN,-SN,0.00,WeatherDisplay:10.37,2013-03-15 20:24:00,
2013-03-15 16:29:00,38.8,29.5,29.66,South,190,9.0,9.0,69,0.00,-SN,-SN,0.00,WeatherDisplay:10.37,2013-03-15 20:29:00,
2013-03-15 16:34:00,38.8,29.5,29.66,South,190,9.0,9.0,69,0.00,-SN,-SN,0.00,WeatherDisplay:10.37,2013-03-15 20:34:00,
2013-03-15 16:39:00,38.8,29.5,29.66,South,190,9.0,9.0,69,0.00,-SN,-SN,0.00,WeatherDisplay:10.37,2013-03-15 20:39:00,
2013-03-15 16:44:00,39.0,29.7,29.66,South,190,9.0,9.0,69,0.00,-SN,-SN,0.00,WeatherDisplay:10.37,2013-03-15 20:44:00,
2013-03-15 16:49:00,39.0,29.7,29.66,South,190,9.0,9.0,69,0.00,-SN,-SN,0.00,WeatherDisplay:10.37,2013-03-15 20:49:00,
2013-03-15 16:54:00,39.2,29.9,29.66,South,190,9.0,9.0,69,0.00,-SN,-SN,0.00,WeatherDisplay:10.37,2013-03-15 20:54:00,
2013-03-15 16:59:00,39.4,30.1,29.66,South,190,9.0,9.0,69,0.00,-SN,-SN,0.00,WeatherDisplay:10.37,2013-03-15 20:59:00,
2013-03-15 17:04:00,39.5,26.3,29.66,SW,223,8.0,9.0,59,0.00,-SN,-SN,0.00,WeatherDisplay:10.37,2013-03-15 21:04:00,
2013-03-15 17:09:00,39.4,26.2,29.66,West,260,8.0,8.0,59,0.00,-SN,-SN,0.00,WeatherDisplay:10.37,2013-03-15 21:09:00,
2013-03-15 17:14:00,39.4,26.2,29.66,West,260,8.0,8.0,59,0.00,-SN,-SN,0.00,WeatherDisplay:10.37,2013-03-15 21:14:00,
2013-03-15 17:19:00,39.4,26.2,29.66,West,260,8.0,8.0,59,0.00,-SN,-SN,0.00,WeatherDisplay:10.37,2013-03-15 21:19:00,
2013-03-15 17:24:00,39.4,26.2,29.66,West,260,8.0,8.0,59,0.00,-SN,-SN,0.00,WeatherDisplay:10.37,2013-03-15 21:24:00,
2013-03-15 17:29:00,39.2,26.1,29.66,West,260,8.0,8.0,59,0.00,-SN,-SN,0.00,WeatherDisplay:10.37,2013-03-15 21:29:00,
2013-03-15 17:34:00,39.2,26.1,29.66,West,260,8.0,8.0,59,0.00,-SN,-SN,0.00,WeatherDisplay:10.37,2013-03-15 21:34:00,
2013-03-15 17:39:00,39.0,25.9,29.66,West,260,8.0,8.0,59,0.00,-SN,-SN,0.00,WeatherDisplay:10.37,2013-03-15 21:39:00,
2013-03-15 17:44:00,38.8,25.7,29.66,West,260,8.0,8.0,59,0.00,-SN,-SN,0.00,WeatherDisplay:10.37,2013-03-15 21:44:00,
2013-03-15 17:49:00,38.8,25.7,29.66,West,260,8.0,8.0,59,0.00,-SN,-SN,0.00,WeatherDisplay:10.37,2013-03-15 21:49:00,
2013-03-15 17:54:00,38.7,25.6,29.66,West,260,8.0,8.0,59,0.00,-SN,-SN,0.00,WeatherDisplay:10.37,2013-03-15 21:54:00,
2013-03-15 17:59:00,39.0,25.9,29.66,West,260,8.1,8.1,59,0.00,-SN,,0.00,WeatherDisplay:10.37,2013-03-15 21:59:00,
2013-03-15 18:04:00,39.0,28.6,29.66,WSW,249,12.0,12.0,66,0.00,-SN,-SN,0.00,WeatherDisplay:10.37,2013-03-15 22:04:00,
2013-03-15 18:09:00,38.8,28.4,29.66,WSW,240,11.5,11.5,66,0.00,-SN,,0.00,WeatherDisplay:10.37,2013-03-15 22:09:00,
2013-03-15 18:14:00,38.8,28.4,29.66,WSW,240,11.5,11.5,66,0.00,-SN,,0.00,WeatherDisplay:10.37,2013-03-15 22:14:00,
2013-03-15 18:19:00,38.7,28.3,29.66,WSW,240,11.5,11.5,66,0.00,-SN,,0.00,WeatherDisplay:10.37,2013-03-15 22:19:00,
2013-03-15 18:24:00,38.5,28.1,29.66,WSW,240,12.0,12.0,66,0.00,-SN,-SN,0.00,WeatherDisplay:10.37,2013-03-15 22:24:00,
2013-03-15 18:29:00,38.3,27.9,29.66,WSW,240,12.0,12.0,66,0.00,-SN,-SN,0.00,WeatherDisplay:10.37,2013-03-15 22:29:00,
2013-03-15 18:34:00,38.1,27.8,29.66,WSW,240,12.0,12.0,66,0.00,-SN,-SN,0.00,WeatherDisplay:10.37,2013-03-15 22:34:00,
2013-03-15 18:39:00,38.1,27.8,29.66,WSW,240,12.0,12.0,66,0.00,-SN,-SN,0.00,WeatherDisplay:10.37,2013-03-15 22:39:00,
2013-03-15 18:44:00,37.9,27.6,29.66,WSW,240,12.0,12.0,66,0.00,-SN,-SN,0.00,WeatherDisplay:10.37,2013-03-15 22:44:00,
2013-03-15 18:49:00,37.9,27.6,29.66,WSW,240,12.0,12.0,66,0.00,-SN,-SN,0.00,WeatherDisplay:10.37,2013-03-15 22:49:00,
2013-03-15 18:54:00,37.8,27.5,29.66,WSW,240,12.0,12.0,66,0.00,-SN,-SN,0.00,WeatherDisplay:10.37,2013-03-15 22:54:00,
2013-03-15 18:59:00,37.8,27.4,29.66,WSW,240,12.0,12.0,66,0.00,-SN,-SN,0.00,WeatherDisplay:10.37,2013-03-15 22:59:00,
2013-03-15 19:04:00,37.6,27.2,29.66,WSW,240,12.0,12.0,66,0.00,-SN,-SN,0.00,WeatherDisplay:10.37,2013-03-15 23:04:00,
2013-03-15 19:09:00,37.4,27.1,29.66,WSW,240,12.0,12.0,66,0.00,-SN,-SN,0.00,WeatherDisplay:10.37,2013-03-15 23:09:00,
2013-03-15 19:14:00,37.3,27.0,29.66,WSW,240,12.0,12.0,66,0.00,-SN,-SN,0.00,WeatherDisplay:10.37,2013-03-15 23:14:00,
2013-03-15 19:19:00,37.2,29.7,29.66,West,262,15.0,26.0,74,0.00,-SN,-SN,0.00,WeatherDisplay:10.37,2013-03-15 23:19:00,
2013-03-15 19:24:00,37.4,29.9,29.66,West,280,15.0,26.0,74,0.00,-SN,-SN,0.00,WeatherDisplay:10.37,2013-03-15 23:24:00,
2013-03-15 19:29:00,37.1,29.6,29.66,West,280,15.0,26.0,74,0.00,-SN,-SN,0.00,WeatherDisplay:10.37,2013-03-15 23:29:00,
2013-03-15 19:34:00,36.9,29.3,29.66,West,280,15.0,26.0,74,0.00,-SN,-SN,0.00,WeatherDisplay:10.37,2013-03-15 23:34:00,
2013-03-15 19:39:00,36.7,29.2,29.66,West,280,15.0,26.0,74,0.00,-SN,-SN,0.00,WeatherDisplay:10.37,2013-03-15 23:39:00,
2013-03-15 19:44:00,36.3,28.8,29.66,West,280,15.0,26.0,74,0.00,-SN,-SN,0.00,WeatherDisplay:10.37,2013-03-15 23:44:00,
2013-03-15 19:49:00,36.3,28.8,29.66,West,275,16.0,28.0,74,0.00,-SN,-SN,0.00,WeatherDisplay:10.37,2013-03-15 23:49:00,
2013-03-15 19:54:00,36.3,28.8,29.66,West,270,16.0,28.0,74,0.00,-SN,-SN,0.00,WeatherDisplay:10.37,2013-03-15 23:54:00,
2013-03-15 19:59:00,36.5,29.0,29.69,West,270,16.0,28.0,74,0.00,-SN,-SN,0.00,WeatherDisplay:10.37,2013-03-15 23:59:00,
2013-03-15 20:04:00,36.5,26.2,29.69,West,280,15.0,28.0,66,0.00,BKN,BKN,0.00,WeatherDisplay:10.37,2013-03-16 00:04:00,
2013-03-15 20:09:00,36.7,26.4,29.69,WNW,290,15.0,26.0,66,0.00,BKN,BKN,0.00,WeatherDisplay:10.37,2013-03-16 00:09:00,
2013-03-15 20:14:00,36.7,26.4,29.69,WNW,290,15.0,26.0,66,0.00,BKN,BKN,0.00,WeatherDisplay:10.37,2013-03-16 00:14:00,
2013-03-15 20:19:00,36.7,26.4,29.69,WNW,290,15.0,26.0,66,0.00,BKN,BKN,0.00,WeatherDisplay:10.37,2013-03-16 00:19:00,
2013-03-15 20:24:00,36.9,26.6,29.69,WNW,290,15.0,26.0,66,0.00,BKN,BKN,0.00,WeatherDisplay:10.37,2013-03-16 00:24:00,
2013-03-15 20:29:00,36.8,26.5,29.69,WNW,290,15.0,26.0,66,0.00,BKN,BKN,0.00,WeatherDisplay:10.37,2013-03-16 00:29:00,
2013-03-15 20:34:00,36.1,25.9,29.69,WNW,290,15.0,26.0,66,0.00,BKN,BKN,0.00,WeatherDisplay:10.37,2013-03-16 00:34:00,
2013-03-15 20:39:00,35.2,25.0,29.69,WNW,290,15.0,26.0,66,0.00,BKN,BKN,0.00,WeatherDisplay:10.37,2013-03-16 00:39:00,
2013-03-15 20:44:00,34.4,24.2,29.72,WNW,290,15.0,26.0,66,0.00,BKN,BKN,0.00,WeatherDisplay:10.37,2013-03-16 00:44:00,
2013-03-15 20:49:00,34.2,28.6,29.72,WNW,285,16.0,26.0,80,0.00,-SN,-SN,0.00,WeatherDisplay:10.37,2013-03-16 00:49:00,
2013-03-15 20:54:00,33.8,28.3,29.72,West,280,16.0,16.0,80,0.00,-SN,-SN,0.00,WeatherDisplay:10.37,2013-03-16 00:54:00,
2013-03-15 20:59:00,33.8,28.3,29.72,West,280,16.0,16.0,80,0.00,-SN,-SN,0.00,WeatherDisplay:10.37,2013-03-16 00:59:00,
2013-03-15 21:04:00,33.6,29.9,29.72,West,270,16.1,38.0,86,0.00,-SN,,0.00,WeatherDisplay:10.37,2013-03-16 01:04:00,
2013-03-15 21:09:00,33.6,29.9,29.72,West,270,16.1,38.0,86,0.00,-SN,,0.00,WeatherDisplay:10.37,2013-03-16 01:09:00,
2013-03-15 21:14:00,33.6,29.9,29.72,West,270,16.1,38.0,86,0.00,-SN,,0.00,WeatherDisplay:10.37,2013-03-16 01:14:00,
2013-03-15 21:19:00,33.4,27.9,29.72,West,280,11.5,11.5,80,0.00,BKN,,0.00,WeatherDisplay:10.37,2013-03-16 01:19:00,
2013-03-15 21:24:00,33.4,27.9,29.72,West,280,11.5,11.5,80,0.00,BKN,,0.00,WeatherDisplay:10.37,2013-03-16 01:24:00,
2013-03-15 21:29:00,33.3,27.8,29.72,West,280,11.5,11.5,80,0.00,BKN,,0.00,WeatherDisplay:10.37,2013-03-16 01:29:00,
2013-03-15 21:34:00,33.3,27.8,29.72,West,280,11.5,11.5,80,0.00,BKN,,0.00,WeatherDisplay:10.37,2013-03-16 01:34:00,
2013-03-15 21:39:00,33.1,27.6,29.72,West,280,11.5,11.5,80,0.00,BKN,,0.00,WeatherDisplay:10.37,2013-03-16 01:39:00,
2013-03-15 21:44:00,32.9,27.4,29.72,West,280,11.5,11.5,80,0.00,BKN,,0.00,WeatherDisplay:10.37,2013-03-16 01:44:00,
2013-03-15 21:49:00,32.9,27.4,29.72,West,280,11.5,11.5,80,0.00,BKN,,0.00,WeatherDisplay:10.37,2013-03-16 01:49:00,
2013-03-15 21:54:00,32.5,27.1,29.72,West,280,11.5,11.5,80,0.00,BKN,,0.00,WeatherDisplay:10.37,2013-03-16 01:54:00,
2013-03-15 21:59:00,32.7,27.2,29.72,West,280,12.0,12.0,80,0.00,BKN,BKN,0.00,WeatherDisplay:10.37,2013-03-16 01:59:00,
2013-03-15 22:04:00,32.6,23.6,29.72,WNW,285,14.0,23.0,69,0.00,FEW,FEW,0.00,WeatherDisplay:10.37,2013-03-16 02:04:00,
2013-03-15 22:09:00,32.6,23.6,29.72,WNW,290,14.0,23.0,69,0.00,FEW,FEW,0.00,WeatherDisplay:10.37,2013-03-16 02:09:00,
2013-03-15 22:14:00,32.5,23.5,29.72,WNW,290,14.0,23.0,69,0.00,FEW,FEW,0.00,WeatherDisplay:10.37,2013-03-16 02:14:00,
2013-03-15 22:19:00,32.5,23.5,29.72,WNW,290,14.0,23.0,69,0.00,FEW,FEW,0.00,WeatherDisplay:10.37,2013-03-16 02:19:00,
2013-03-15 22:24:00,32.5,23.5,29.72,WNW,290,14.0,23.0,69,0.00,FEW,FEW,0.00,WeatherDisplay:10.37,2013-03-16 02:24:00,
2013-03-15 22:29:00,32.4,23.3,29.72,WNW,290,14.0,23.0,69,0.00,FEW,FEW,0.00,WeatherDisplay:10.37,2013-03-16 02:29:00,
2013-03-15 22:34:00,32.4,23.3,29.72,WNW,290,14.0,23.0,69,0.00,FEW,FEW,0.00,WeatherDisplay:10.37,2013-03-16 02:34:00,
2013-03-15 22:39:00,32.4,23.3,29.72,WNW,290,14.0,23.0,69,0.00,FEW,FEW,0.00,WeatherDisplay:10.37,2013-03-16 02:39:00,
2013-03-15 22:44:00,32.3,23.2,29.72,WNW,290,14.0,23.0,69,0.00,FEW,FEW,0.00,WeatherDisplay:10.37,2013-03-16 02:44:00,
2013-03-15 22:49:00,32.5,23.5,29.72,WNW,290,14.0,23.0,69,0.00,FEW,FEW,0.00,WeatherDisplay:10.37,2013-03-16 02:49:00,
2013-03-15 22:54:00,32.7,23.7,29.72,WNW,290,14.0,23.0,69,0.00,FEW,FEW,0.00,WeatherDisplay:10.37,2013-03-16 02:54:00,
2013-03-15 22:59:00,32.5,23.5,29.75,WNW,290,14.0,23.0,69,0.00,FEW,FEW,0.00,WeatherDisplay:10.37,2013-03-16 02:59:00,
2013-03-15 23:04:00,32.5,23.4,29.75,WNW,290,14.0,23.0,69,0.00,FEW,FEW,0.00,WeatherDisplay:10.37,2013-03-16 03:04:00,
2013-03-15 23:09:00,32.4,23.3,29.75,WNW,290,14.0,23.0,69,0.00,FEW,FEW,0.00,WeatherDisplay:10.37,2013-03-16 03:09:00,
2013-03-15 23:14:00,32.5,23.5,29.75,WNW,290,14.0,23.0,69,0.00,FEW,FEW,0.00,WeatherDisplay:10.37,2013-03-16 03:14:00,
2013-03-15 23:19:00,32.4,22.3,29.75,WNW,290,10.0,23.0,66,0.00,CLR,CLR,0.00,WeatherDisplay:10.37,2013-03-16 03:19:00,
2013-03-15 23:24:00,32.5,22.4,29.75,WNW,290,10.0,10.0,66,0.00,CLR,CLR,0.00,WeatherDisplay:10.37,2013-03-16 03:24:00,
2013-03-15 23:29:00,32.5,22.4,29.75,WNW,290,10.0,10.0,66,0.00,CLR,CLR,0.00,WeatherDisplay:10.37,2013-03-16 03:29:00,
2013-03-15 23:34:00,32.4,22.3,29.75,WNW,290,10.0,10.0,66,0.00,CLR,CLR,0.00,WeatherDisplay:10.37,2013-03-16 03:34:00,
2013-03-15 23:39:00,32.4,22.3,29.75,WNW,290,10.0,10.0,66,0.00,CLR,CLR,0.00,WeatherDisplay:10.37,2013-03-16 03:39:00,
2013-03-15 23:44:00,32.2,22.1,29.75,WNW,290,10.4,10.4,66,0.00,CLR,,0.00,WeatherDisplay:10.37,2013-03-16 03:44:00,
2013-03-15 23:49:00,32.4,22.3,29.75,WNW,290,10.0,10.0,66,0.00,CLR,CLR,0.00,WeatherDisplay:10.37,2013-03-16 03:49:00,
2013-03-15 23:54:00,32.2,22.1,29.75,WNW,290,10.0,10.0,66,0.00,CLR,CLR,0.00,WeatherDisplay:10.37,2013-03-16 03:54:00,
2013-03-15 23:59:00,32.2,22.1,29.75,WNW,290,10.0,10.0,66,0.00,CLR,CLR,0.00,WeatherDisplay:10.37,2013-03-16 03:59:00,